JE4YIZ-13 Weather Reports


Display with metric or nautical units.
time (UTC)temp
F
wind
direction
speed
MPH
gust
MPH
rain 1hr
in
rain 24hr
in
rain mn
in
humidity
%
barometer
mb
20260503184634 61 129 5.0 13.0 0.00 8.11 0.00 74 1004.5
20260503184118 61 122 3.0 16.0 0.00 8.11 0.00 74 1004.2
20260503183627 61 129 7.0 16.0 0.00 8.11 0.00 73 1004.3
20260503183134 61 129 7.0 15.0 0.00 8.11 0.00 73 1004.2
20260503182617 61 130 5.0 10.0 0.00 8.11 0.00 73 1004.1
20260503182127 61 147 5.0 14.0 0.00 8.11 0.00 74 1004.0
20260503181633 61 87 4.0 14.0 0.00 8.11 0.00 74 1004.1
20260503181115 61 122 2.0 11.0 0.00 8.11 0.00 74 1004.1
20260503180625 61 130 3.0 12.0 0.00 8.11 0.00 74 1004.1
20260503180133 61 115 5.0 11.0 0.00 8.11 0.00 74 1004.1
20260503175617 61 124 4.0 11.0 0.00 8.11 0.00 74 1004.1
20260503175128 61 174 3.0 10.0 0.00 8.11 0.00 75 1004.2
20260503174611 61 107 3.0 12.0 0.00 8.11 0.00 75 1004.2
20260503174133 61 114 4.0 12.0 0.00 8.11 0.00 75 1004.1
20260503173619 61 140 6.0 14.0 0.00 8.11 0.00 74 1004.0
20260503173149 61 128 5.0 13.0 0.00 8.11 0.00 74 1004.0
20260503172631 61 103 4.0 13.0 0.00 8.11 0.00 75 1004.2
20260503172120 61 129 4.0 10.0 0.00 8.11 0.00 75 1003.9
20260503171630 61 102 3.0 12.0 0.00 8.11 0.00 75 1004.0
20260503171114 61 106 5.0 10.0 0.00 8.11 0.00 76 1003.9
20260503170622 61 127 3.0 9.0 0.00 8.11 0.00 76 1003.9
20260503170153 61 135 5.0 12.0 0.00 8.11 0.00 76 1003.8
20260503160113 61 136 6.0 14.0 0.00 8.11 0.00 77 1003.1
20260503150611 62 124 3.0 13.0 0.00 8.11 0.00 75 1002.9
20260503150120 62 58 5.0 13.0 0.00 8.11 0.00 75 1003.0
20260503140121 61 163 3.0 13.0 0.00 8.11 1.62 79 1002.8
20260503131118 60 134 2.0 6.0 0.00 8.11 1.62 83 1003.0
20260503130627 61 117 2.0 6.0 0.00 8.11 1.62 83 1002.8
20260503130136 61 207 2.0 8.0 0.00 8.11 1.62 84 1002.9
20260503120111 62 160 2.0 8.0 0.04 8.11 1.62 87 1002.0
20260503110616 62 162 5.0 13.0 0.31 8.07 1.61 88 1001.2
20260503081556 63 184 1.0 2.0 0.94 7.36 1.47 91 999.1
20260503081122 63 165 1.0 2.0 0.98 7.32 1.46 91 999.2
20260503080612 63 184 1.0 3.0 1.02 7.28 1.46 91 999.0
20260503072605 63 179 0.0 2.0 1.50 6.57 1.31 90 999.2
20260503072105 63 185 1.0 3.0 1.69 6.50 1.30 90 999.2
20260503071631 63 173 0.0 4.0 2.01 6.42 1.28 90 999.3
20260503071117 63 174 2.0 4.0 2.24 6.34 1.27 90 999.1
20260503070615 63 189 1.0 3.0 2.36 6.22 1.24 90 999.1
20260503060109 62 127 0.0 4.0 1.69 3.66 0.73 89 999.4
20260503055055 62 226 1.0 4.0 1.61 3.19 0.65 89 999.2
20260503054626 62 179 1.0 5.0 1.61 2.91 0.58 88 999.2
20260503054136 62 115 2.0 5.0 1.42 2.68 0.54 88 999.4
20260503053557 62 110 1.0 3.0 1.34 2.60 0.52 88 999.3
20260503053105 62 133 0.0 5.0 1.26 2.52 0.50 88 999.1
20260503052615 62 122 2.0 5.0 1.18 2.32 0.46 88 999.3
20260503051614 62 58 1.0 7.0 1.18 2.05 0.41 88 999.3
20260503051057 62 93 2.0 7.0 1.26 2.05 0.41 88 999.6
20260503050603 61 112 2.0 4.0 1.30 2.05 0.41 87 999.6
20260503050113 61 53 2.0 4.0 1.26 1.97 0.39 87 999.6
20260503045615 61 85 2.0 4.0 1.14 1.77 0.35 87 999.9
20260503045124 61 329 1.0 4.0 0.94 1.54 0.31 86 1000.0
20260503044613 61 128 1.0 3.0 0.75 1.30 0.26 86 1000.1
20260503044116 61 143 0.0 4.0 0.79 1.26 0.25 86 1000.1
20260503043605 61 139 1.0 4.0 0.83 1.26 0.25 86 1000.0
20260503043052 61 116 1.0 7.0 0.83 1.26 0.25 86 1000.1
20260503042617 61 72 3.0 7.0 0.67 1.10 0.22 85 1000.2
20260503042059 61 91 2.0 3.0 0.55 0.94 0.19 85 1000.4
20260503041606 61 105 1.0 3.0 0.43 0.83 0.17 85 1000.3
20260503041133 61 123 1.0 4.0 0.43 0.79 0.16 85 1000.4
20260503040554 61 333 1.0 4.0 0.39 0.75 0.15 85 1000.5
20260503040052 61 187 1.0 2.0 0.35 0.71 0.14 85 1000.8
20260503035602 61 172 1.0 2.0 0.31 0.63 0.13 85 1000.8
20260503035106 61 266 0.0 4.0 0.28 0.59 0.12 84 1001.0
20260503034615 61 210 1.0 4.0 0.24 0.55 0.11 84 1001.1
20260503034057 61 160 1.0 4.0 0.16 0.47 0.09 84 1001.1
20260503033607 61 146 1.0 4.0 0.16 0.43 0.09 84 1001.1
20260503033115 61 123 1.0 7.0 0.16 0.43 0.09 84 1001.3
20260503032556 61 173 1.0 7.0 0.12 0.39 0.08 84 1001.3
20260503032106 62 165 0.0 6.0 0.12 0.39 0.08 84 1001.3
20260503031612 62 148 2.0 6.0 0.08 0.35 0.07 84 1001.4
20260503031055 62 130 1.0 7.0 0.08 0.35 0.07 84 1001.4
20260503030606 62 114 3.0 7.0 0.08 0.35 0.07 84 1001.7
20260503030115 62 129 1.0 6.0 0.08 0.35 0.07 84 1001.9
20260503025558 62 109 2.0 9.0 0.04 0.31 0.06 85 1002.0
20260503025108 62 119 2.0 9.0 0.04 0.31 0.06 85 1002.0
20260503024638 62 145 3.0 7.0 0.08 0.31 0.06 84 1002.1
20260503024100 62 335 2.0 11.0 0.08 0.31 0.06 83 1002.3
20260503023053 61 237 1.0 4.0 0.04 0.28 0.06 82 1002.6
20260503022602 61 221 1.0 6.0 0.04 0.28 0.06 82 1002.7
20260503022132 61 151 2.0 7.0 0.04 0.28 0.06 81 1002.8
20260503021554 61 292 2.0 7.0 0.04 0.28 0.06 82 1002.9
20260503021123 61 293 2.0 5.0 0.04 0.28 0.06 83 1003.0
20260503020631 61 138 0.0 6.0 0.04 0.28 0.06 83 1003.2
20260503020117 61 76 3.0 6.0 0.04 0.28 0.06 83 1003.3
20260503015559 61 146 1.0 5.0 0.04 0.28 0.06 83 1003.3
20260503015105 61 88 2.0 5.0 0.04 0.28 0.06 84 1003.4
20260503014605 61 127 0.0 7.0 0.00 0.24 0.05 85 1003.5
20260503014114 61 125 1.0 7.0 0.00 0.24 0.05 85 1003.8
20260503013552 61 158 1.0 8.0 0.00 0.24 0.05 85 1003.6
20260503013059 61 123 3.0 8.0 0.00 0.24 0.05 85 1003.8
20260503012608 61 195 2.0 7.0 0.00 0.24 0.05 85 1003.7
20260503012117 61 127 2.0 7.0 0.00 0.24 0.05 85 1004.0
20260503011556 61 128 2.0 6.0 0.00 0.24 0.05 84 1004.1
20260503011128 61 96 2.0 7.0 0.00 0.24 0.05 84 1004.2
20260503010616 61 103 2.0 8.0 0.00 0.24 0.05 84 1004.1
20260503010055 61 179 2.0 8.0 0.00 0.24 0.05 83 1004.3
20260503005626 60 101 3.0 7.0 0.00 0.24 0.05 82 1004.3
20260503005113 60 251 1.0 5.0 0.04 0.24 0.05 83 1004.4
20260503004555 60 197 1.0 5.0 0.04 0.24 0.05 84 1004.5
20260503004055 60 100 2.0 5.0 0.04 0.24 0.05 85 1004.6
20260503003601 60 131 1.0 3.0 0.04 0.24 0.05 85 1004.8
20260503003110 60 142 1.0 4.0 0.04 0.24 0.05 85 1004.8
20260503002552 60 173 2.0 4.0 0.04 0.24 0.05 85 1004.9
20260503002102 60 139 0.0 4.0 0.04 0.24 0.05 85 1005.0
20260503001611 60 222 2.0 5.0 0.04 0.24 0.05 85 1004.9
20260503001052 60 155 1.0 6.0 0.04 0.24 0.05 85 1004.9
20260503000602 60 125 2.0 6.0 0.04 0.24 0.05 85 1005.0
20260503000113 60 140 0.0 8.0 0.04 0.24 0.05 85 1005.1
20260502235618 60 196 2.0 8.0 0.04 0.24 0.05 85 1005.2
20260502235107 60 266 2.0 5.0 0.00 0.20 0.04 84 1005.4
20260502234633 60 96 1.0 3.0 0.00 0.20 0.04 84 1005.6
20260502234051 60 89 1.0 3.0 0.00 0.20 0.04 84 1005.7
20260502233613 60 158 1.0 2.0 0.00 0.20 0.04 84 1005.8
20260502233054 60 174 0.0 97.0 0.00 0.20 0.04 84 1005.7
20260502232604 60 174 1.0 97.0 0.00 0.20 0.04 84 1005.6
20260502232111 60 167 0.0 2.0 0.00 0.20 0.04 84 1005.7
20260502231554 60 149 0.0 1.0 0.00 0.20 0.04 85 1005.7
20260502231104 59 149 0.0 0.0 0.00 0.20 0.04 85 1005.6
20260502230614 59 176 0.0 4.0 0.00 0.20 0.04 84 1005.8
20260502230055 59 167 1.0 4.0 0.00 0.20 0.04 84 1005.9
20260502225603 60 164 1.0 1.0 0.08 0.20 0.04 84 1005.9
20260502225112 60 164 0.0 2.0 0.08 0.20 0.04 84 1005.9
20260502224555 60 163 1.0 2.0 0.08 0.20 0.04 84 1006.1
20260502224101 60 150 0.0 1.0 0.08 0.20 0.04 84 1006.3
20260502223610 60 150 0.0 1.0 0.08 0.20 0.04 84 1006.2
20260502223117 60 150 0.0 4.0 0.08 0.20 0.04 84 1006.3
20260502222558 60 66 2.0 4.0 0.12 0.20 0.04 84 1006.4
20260502222127 60 87 1.0 4.0 0.12 0.20 0.04 84 1006.5
20260502221635 60 72 2.0 4.0 0.16 0.20 0.04 85 1006.5
20260502221116 60 58 1.0 4.0 0.20 0.20 0.04 86 1006.7
20260502220602 60 340 2.0 4.0 0.20 0.20 0.04 86 1006.8
20260502220110 60 122 0.0 1.0 0.16 0.16 0.03 86 1007.0
20260502215551 60 123 0.0 1.0 0.12 0.12 0.02 85 1006.9
20260502215124 60 122 0.0 1.0 0.12 0.12 0.02 85 1006.9
20260502214612 60 122 1.0 1.0 0.12 0.12 0.02 85 1006.7
20260502214056 60 122 0.0 4.0 0.12 0.12 0.02 84 1006.9
20260502213606 60 100 2.0 4.0 0.12 0.12 0.02 84 1006.9
20260502213117 60 174 0.0 1.0 0.12 0.12 0.02 83 1007.0
20260502212558 60 142 0.0 1.0 0.08 0.08 0.02 83 1006.9
20260502212108 60 165 0.0 2.0 0.08 0.08 0.02 82 1006.8
20260502211552 61 178 0.0 3.0 0.04 0.04 0.01 82 1006.8
20260502211123 61 201 2.0 3.0 0.00 0.00 0.00 82 1006.7
20260502210611 61 141 1.0 1.0 0.00 0.00 0.00 81 1007.0
20260502210053 61 141 0.0 2.0 0.00 0.00 0.00 80 1007.2
20260502205614 61 141 1.0 2.0 0.00 0.00 0.00 79 1007.1
20260502205102 61 162 0.0 1.0 0.00 0.00 0.00 78 1007.3
20260502204608 61 162 0.0 1.0 0.00 0.00 0.00 77 1007.2
20260502204052 61 162 0.0 1.0 0.00 0.00 0.00 77 1007.2
20260502203603 62 162 0.0 0.0 0.00 0.00 0.00 77 1007.1
20260502203112 62 162 0.0 4.0 0.00 0.00 0.00 76 1007.1
20260502202615 62 166 3.0 4.0 0.00 0.00 0.00 76 1007.1
20260502202105 61 131 1.0 4.0 0.00 0.00 0.00 77 1007.0
20260502201614 61 131 2.0 4.0 0.00 0.00 0.00 78 1006.8
20260502201057 61 139 1.0 2.0 0.00 0.00 0.00 79 1006.5
20260502200603 61 145 0.0 4.0 0.00 0.00 0.00 79 1006.7
20260502200109 60 203 2.0 4.0 0.00 0.00 0.00 80 1006.6
20260502195551 60 184 0.0 2.0 0.00 0.00 0.00 81 1006.6
20260502195059 60 154 0.0 2.0 0.00 0.00 0.00 81 1006.7
20260502194607 60 185 1.0 2.0 0.00 0.00 0.00 81 1006.8
20260502194116 60 163 1.0 2.0 0.00 0.00 0.00 81 1007.0
20260502193617 60 159 1.0 1.0 0.00 0.00 0.00 81 1007.1
20260502193101 60 159 0.0 2.0 0.00 0.00 0.00 81 1007.2
20260502192611 60 159 0.0 2.0 0.00 0.00 0.00 81 1006.9
20260502192115 60 155 0.0 1.0 0.00 0.00 0.00 81 1007.4
20260502191604 60 155 0.0 1.0 0.00 0.00 0.00 81 1007.4
20260502191108 60 155 0.0 0.0 0.00 0.00 0.00 81 1007.3
20260502190552 60 155 0.0 0.0 0.00 0.00 0.00 80 1007.4
20260502190116 60 155 0.0 1.0 0.00 0.00 0.00 80 1007.1
20260502185606 60 155 0.0 1.0 0.00 0.00 0.00 80 1007.0
20260502185106 60 155 0.0 1.0 0.00 0.00 0.00 80 1007.3